Dewpoint
53 53 53 53 53 53 53 53 53 53 53 53 53 53 52 52 51 51 51 51 51 51 51 51 51 50 29 21 19 16 29 21 17 17 16 12 9 11 9 7 10 10 11 10 9 10 7
53 53 53 54 54 53 53 54 54 54 54 53 53 52 52 52 51 51 51 50 51 51 50 51 51 41 24 19 16 17 20 16 17 15 14 13 10 11 9 9 9 12 11 9 10 12 12
53 53 53 53 53 54 55 55 55 55 54 53 53 52 52 51 51 51 51 50 50 50 51 50 48 21 22 20 11 21 19 17 19 15 16 14 13 11 13 13 12 14 16 13 14 15 12
53 53 53 53 55 55 55 55 54 55 54 53 53 52 52 51 51 51 51 50 50 50 48 45 43 21 18 13 16 21 21 19 20 20 19 18 19 17 16 14 15 16 17 17 16 16 14
53 53 54 55 55 55 55 55 55 54 55 53 53 52 51 51 51 50 49 46 47 41 33 24 25 23 21 20 20 20 21 21 21 20 21 19 19 17 19 20 18 18 18 17 19 15 16
53 54 54 55 56 56 55 55 55 55 54 53 53 52 51 51 50 49 43 42 37 23 22 23 21 22 22 20 20 22 23 23 20 19 22 23 22 19 15 20 20 19 20 19 19 17 16
53 54 55 55 55 55 55 55 55 54 53 53 53 52 50 50 49 42 33 29 23 26 21 20 18 18 19 20 23 26 24 24 23 22 19 22 21 16 10 11 11 15 17 20 20 15 17
53 54 55 55 55 56 55 55 55 54 53 53 53 51 50 47 43 35 31 26 25 28 22 20 18 20 17 21 23 26 25 24 23 20 21 23 20 10 8 10 14 19 20 24 20 17 17
54 54 55 55 55 56 55 55 54 54 53 52 51 49 48 44 31 28 29 28 30 32 24 23 21 21 21 23 23 25 24 23 22 21 22 23 15 9 10 12 19 24 21 19 18 17 18
54 54 54 55 55 55 55 54 54 54 53 52 49 48 42 39 29 23 21 27 30 33 23 18 21 23 24 23 22 25 26 23 23 22 20 19 15 12 13 15 17 24 13 13 17 20 25
54 54 54 54 55 55 55 54 54 54 53 53 48 46 39 32 24 17 22 31 34 37 12 19 21 24 26 24 25 26 25 26 24 23 25 21 18 17 19 17 14 23 15 17 16 19 20
54 54 54 54 55 55 54 53 54 54 54 53 48 44 35 33 32 30 33 36 38 20 5 17 22 21 22 23 24 26 25 27 25 26 23 18 13 17 17 17 15 16 20 16 17 20 25
54 53 53 54 55 54 53 53 53 54 54 53 48 42 34 32 31 34 39 39 20 10 14 14 16 21 22 21 21 24 21 24 27 23 23 26 21 18 16 22 19 24 27 27 27 27 23
55 52 52 53 54 54 54 54 54 54 53 52 46 40 41 37 35 40 38 22 4 6 15 20 20 20 19 21 20 23 22 22 22 28 27 23 19 22 16 21 23 21 23 26 22 20 19
52 51 51 53 53 53 53 53 53 54 54 49 41 41 42 41 38 40 29 10 4 10 18 16 17 12 13 22 17 22 23 23 23 26 27 27 23 16 14 15 22 23 24 19 23 15 19
51 51 50 52 53 52 52 52 52 53 53 46 41 38 40 40 39 33 20 8 18 18 17 18 8 17 8 14 17 22 22 24 21 20 24 27 26 21 14 16 18 23 20 25 24 21 19
50 49 50 51 52 51 51 50 51 52 52 44 36 27 35 39 32 25 12 16 22 15 18 17 17 15 18 18 20 22 23 24 20 17 21 27 28 24 21 23 26 20 24 21 23 21 22
49 48 50 52 51 49 48 49 49 51 49 40 32 11 37 33 18 20 18 20 18 15 16 18 20 20 20 21 21 22 24 25 21 21 23 23 26 26 26 19 18 21 27 26 24 24 24
50 50 52 51 49 47 46 46 47 50 48 40 32 31 39 30 13 17 20 19 20 18 18 18 18 21 22 20 20 23 24 22 19 20 23 24 27 25 25 21 18 23 24 22 21 24 25
53 52 51 49 47 47 46 45 45 48 49 40 37 21 34 33 30 29 28 25 23 19 19 18 19 18 18 19 20 24 24 23 18 18 23 26 28 28 25 27 30 27 27 23 25 26 25
51 50 48 47 46 46 45 45 44 47 47 42 39 35 36 31 33 33 33 31 28 26 20 18 19 19 21 24 25 23 23 22 19 20 23 23 23 24 27 29 29 29 29 30 25 27 26
49 48 47 45 45 44 44 45 45 46 47 41 42 40 39 37 35 34 34 31 30 30 27 24 21 24 21 23 30 30 31 32 31 19 21 22 26 27 26 27 27 26 27 27 28 29 28
47 45 44 43 42 43 43 44 44 45 47 43 40 41 41 36 35 34 33 33 33 31 34 28 26 29 30 30 30 28 29 31 32 30 25 25 24 24 24 27 27 23 25 25 25 25 27
44 43 42 42 42 42 43 43 43 43 46 44 42 43 39 35 34 34 35 35 35 35 34 35 31 32 31 27 28 29 27 26 25 25 30 25 23 24 23 25 19 22 21 21 24 24 23
42 42 42 42 42 42 42 42 41 41 43 43 42 43 41 37 36 36 35 35 35 36 36 36 37 29 24 30 33 32 30 30 21 16 26 28 26 24 22 22 21 20 21 20 19 20 22
42 42 41 41 41 41 41 40 40 39 40 43 40 41 41 37 34 39 38 38 34 34 34 36 28 27 29 32 32 24 18 23 22 21 17 25 27 25 21 19 15 18 19 19 19 18 18
41 41 41 40 40 40 39 39 39 39 38 41 39 40 40 34 35 39 35 35 38 36 33 33 33 31 28 32 26 21 18 26 22 24 19 20 22 20 21 20 21 19 19 19 18 22 29
40 40 40 39 39 39 39 39 39 39 39 39 37 39 38 33 31 33 35 36 34 33 27 29 27 27 29 27 26 25 25 25 25 21 18 19 19 17 18 18 15 17 19 24 28 30 30
38 38 38 37 37 37 36 36 36 36 40 36 33 36 39 35 32 34 34 34 35 36 33 32 29 29 30 28 28 28 24 27 24 17 19 17 21 19 18 15 19 20 20 23 29 31 31
Wind_Speed
7 7 7 8 9 10 10 11 11 10 10 10 9 9 9 9 9 10 10 11 11 10 11 10 10 9 2 4 5 9 18 11 3 2 5 2 3 3 3 4 2 3 3 2 2 2 1
8 8 9 9 10 11 12 12 11 11 11 10 9 10 10 10 10 10 10 11 10 10 10 11 9 5 2 5 3 10 13 6 11 7 8 7 4 5 8 4 2 3 4 4 1 1 2
9 9 10 10 11 12 13 13 14 13 13 12 11 11 11 11 11 11 11 12 11 11 11 10 8 1 7 5 2 11 9 4 5 4 5 5 2 3 3 5 4 5 1 2 2 3 1
9 10 11 12 12 13 14 14 14 15 15 13 12 12 12 12 13 12 13 12 11 11 9 6 4 1 3 1 1 10 11 1 6 5 5 2 6 10 5 6 3 1 2 3 2 5 1
10 10 11 12 14 14 15 16 16 16 16 15 13 13 13 13 13 13 11 10 7 6 4 3 0 1 2 1 4 7 8 5 5 2 6 3 4 5 3 0 2 3 5 6 4 2 4
10 11 12 14 15 16 17 17 18 18 17 16 15 14 14 14 13 13 11 2 2 0 3 0 2 2 4 5 6 7 5 4 3 1 1 5 5 4 6 6 2 5 7 6 11 3 5
11 12 13 15 17 18 18 18 19 20 19 17 15 14 14 14 11 10 0 2 2 1 12 6 2 1 4 10 2 10 6 3 1 6 4 5 7 6 3 4 2 2 7 14 12 2 9
11 12 13 16 17 19 19 18 19 21 20 17 15 14 14 12 7 4 3 4 2 1 7 2 1 2 1 4 4 15 13 3 5 5 4 1 4 1 1 1 3 5 9 9 11 2 10
11 12 14 16 17 19 19 19 20 22 21 18 15 15 13 9 1 6 9 5 2 2 2 2 2 3 3 5 4 12 11 3 7 5 9 3 2 0 1 2 7 6 5 5 9 15 7
11 12 13 15 17 19 20 19 21 22 22 19 16 17 12 4 3 1 4 1 2 2 1 3 3 4 2 2 3 3 5 2 4 2 3 4 1 1 2 2 3 8 0 6 14 11 8
11 11 13 15 17 19 19 20 21 22 22 20 17 17 8 10 7 3 1 2 2 1 2 3 2 3 3 4 4 5 2 1 3 2 1 1 1 1 3 2 1 5 4 11 4 4 4
11 12 14 16 18 19 19 20 20 20 21 20 15 17 4 4 5 2 2 2 1 1 4 1 3 6 3 6 4 7 3 7 2 2 5 2 1 1 3 3 3 9 6 4 1 2 3
11 12 14 17 18 18 19 19 20 22 21 19 12 10 7 2 2 2 2 2 0 3 0 1 2 5 2 5 3 8 5 6 2 2 1 1 2 1 2 4 2 5 6 8 5 3 3
11 13 15 18 18 18 19 21 23 23 22 17 6 4 6 4 2 2 1 1 3 1 2 0 1 2 1 4 1 5 1 1 1 1 1 3 4 0 4 2 3 4 2 3 7 6 10
13 14 15 17 18 20 21 22 24 24 23 12 2 2 3 8 3 2 1 2 2 2 1 1 1 1 1 1 2 2 1 3 2 1 1 2 4 2 3 1 2 1 1 0 3 1 4
12 13 15 17 19 20 22 23 25 26 24 8 1 1 3 10 3 0 1 3 1 1 2 1 3 1 3 2 3 1 2 3 4 1 1 2 8 1 2 1 4 0 3 2 1 4 6
11 14 15 16 19 21 22 24 26 28 25 1 2 1 2 5 1 3 2 2 2 1 1 1 2 2 3 2 2 2 2 1 2 4 1 2 2 1 2 5 2 3 2 2 2 3 5
10 14 15 16 19 21 23 24 26 28 25 6 2 2 4 2 1 3 2 1 1 2 1 1 1 3 4 3 3 4 4 3 6 8 3 3 3 7 11 2 1 2 4 7 4 6 8
12 14 14 16 18 21 24 25 26 26 16 3 3 3 3 2 1 3 1 0 1 2 3 2 3 3 3 3 4 4 3 1 6 5 4 7 2 11 6 1 1 5 6 6 2 1 17
14 14 15 16 19 21 24 27 29 27 15 3 3 2 6 8 3 3 2 1 1 2 2 3 2 2 2 4 7 3 3 2 6 5 3 7 6 16 22 23 12 7 11 13 13 12 28
15 15 16 17 19 21 23 26 30 31 16 3 7 3 1 5 6 3 1 1 2 2 2 2 2 8 4 3 3 6 4 2 6 6 6 5 13 21 28 29 23 21 23 23 25 34 27
16 15 16 18 20 21 23 25 28 32 15 8 4 1 1 1 2 3 1 2 2 3 2 3 5 1 6 6 9 14 8 10 13 8 9 4 9 6 12 22 22 22 25 30 32 33 29
16 16 17 18 20 21 23 25 28 30 13 5 2 1 1 0 1 2 2 2 3 1 5 6 6 4 10 17 18 19 14 14 14 11 14 8 7 6 18 3 8 13 25 24 10 11 11
16 17 17 19 20 21 23 25 27 27 15 3 2 1 1 3 3 5 6 8 13 11 12 12 8 9 3 5 9 10 16 19 14 12 15 9 6 4 14 5 15 3 4 3 15 13 18
17 17 17 18 19 20 22 23 25 27 23 6 3 1 2 5 7 11 14 11 9 8 8 10 16 4 4 3 5 8 5 2 1 1 9 9 8 6 6 13 22 13 4 4 6 6 8
17 17 17 17 18 19 20 21 23 24 22 5 8 4 2 2 6 6 5 5 10 12 11 3 1 2 1 3 3 5 7 4 4 3 0 5 7 10 5 9 19 8 3 1 1 10 6
16 15 14 15 16 16 17 18 19 22 22 5 5 7 2 3 3 3 3 5 2 2 6 4 3 1 1 4 8 8 10 2 6 6 5 3 4 15 17 11 10 5 3 1 5 4 6
15 14 14 15 16 15 14 14 15 16 18 7 3 7 3 3 9 2 3 3 4 2 7 3 5 1 2 5 4 4 4 3 4 1 0 3 4 7 5 7 8 2 2 5 9 12 17
13 14 14 14 14 15 15 16 15 16 9 6 3 3 2 4 5 2 4 5 4 0 5 3 2 0 4 4 3 3 4 2 1 14 4 8 9 7 10 11 5 5 9 12 4 16 15
Wind_Direction
27 23 23 26 24 19 15 12 3 356 356 346 343 338 331 327 324 322 321 322 321 321 323 322 323 325 227 69 17 338 337 341 348 18 54 87 75 111 107 94 91 84 132 96 110 77 280
20 16 16 19 22 17 15 8 360 356 350 345 345 341 334 330 327 324 324 323 320 319 318 316 323 320 248 67 342 342 341 354 21 32 37 30 79 105 101 73 35 103 120 122 158 18 280
19 16 13 15 21 18 14 8 1 357 354 351 347 343 338 336 328 324 324 319 313 311 309 309 322 301 62 76 2 357 7 19 4 18 65 34 77 54 117 104 124 138 159 183 191 317 263
19 17 13 16 19 17 13 5 360 356 356 354 348 344 342 335 326 321 316 310 302 302 297 297 311 248 90 22 340 9 360 21 26 31 77 99 67 89 44 120 115 256 235 291 116 352 182
23 19 17 16 17 14 10 5 1 358 354 353 348 343 340 333 327 321 313 302 295 305 304 315 253 289 60 142 12 349 16 357 326 42 56 80 68 73 84 192 163 39 319 309 290 73 301
26 21 18 14 15 11 9 5 2 356 353 351 349 344 339 332 323 326 316 270 332 51 334 91 88 140 43 336 317 335 348 346 28 310 149 40 53 69 32 5 339 334 321 301 284 355 294
31 24 18 14 13 11 9 6 2 358 353 351 346 341 337 329 326 335 40 148 202 126 42 64 52 45 335 321 272 10 350 330 5 59 32 21 56 41 35 32 42 308 287 291 289 326 313
36 28 21 17 11 9 8 6 4 0 356 351 344 341 338 332 343 13 54 84 84 107 91 37 42 6 339 341 345 6 1 30 35 49 341 104 60 64 296 300 297 288 297 297 286 276 320
39 31 23 17 10 5 6 5 5 2 357 353 345 345 340 334 3 45 71 85 346 296 87 27 41 25 342 354 49 347 6 16 50 55 31 74 88 176 231 270 329 282 262 297 292 316 270
42 33 25 18 7 3 4 5 5 2 358 352 345 348 351 328 109 95 61 323 312 292 176 5 11 18 340 17 44 345 14 39 45 79 60 76 112 242 249 277 334 311 111 298 307 334 311
44 34 26 15 6 2 5 3 3 0 357 348 348 350 10 47 126 69 121 304 287 234 271 3 3 323 2 47 319 14 8 15 76 96 172 271 320 312 258 315 290 306 319 301 290 277 312
44 35 26 11 5 7 8 2 357 349 352 347 347 356 0 25 61 73 298 275 203 147 256 21 334 346 349 28 19 314 23 53 95 112 54 96 82 359 324 294 245 310 299 261 214 234 264
42 34 24 9 7 14 7 357 348 347 350 344 342 7 48 15 58 330 277 212 165 211 58 320 344 9 21 341 11 16 22 26 21 324 308 219 177 110 357 309 213 329 325 320 311 313 311
45 32 24 8 9 7 2 356 348 347 349 342 346 20 48 55 338 303 233 146 233 197 216 49 272 305 287 357 13 353 359 239 98 17 70 317 292 42 3 57 331 12 28 305 300 305 308
50 31 23 14 11 7 3 357 350 348 348 348 35 26 56 1 337 264 180 241 254 180 128 280 257 266 225 223 302 315 266 219 169 205 299 297 263 117 57 97 353 47 303 62 258 201 275
51 35 25 17 12 8 3 359 355 348 350 349 78 67 27 335 329 278 136 233 201 144 135 129 248 223 261 239 297 315 228 162 178 168 338 175 294 75 117 129 63 128 112 288 203 298 281
49 38 27 21 12 8 3 1 358 352 350 359 71 148 1 346 284 63 206 184 172 158 160 215 264 257 241 292 253 264 273 193 190 161 81 144 217 173 180 205 199 156 205 172 270 238 276
51 40 30 26 17 10 5 2 2 358 349 48 43 289 5 318 11 44 90 110 88 160 135 241 231 216 225 202 255 245 246 233 169 163 172 161 194 262 280 132 145 247 224 196 229 257 230
57 53 41 32 21 13 7 3 3 3 10 342 41 327 14 321 57 60 73 72 222 191 217 201 227 225 206 232 265 227 240 150 170 180 184 183 215 309 264 119 176 214 205 222 200 265 241
64 55 49 38 27 17 9 3 0 3 6 69 31 358 18 52 46 76 20 281 254 214 240 209 216 173 187 238 225 273 242 200 196 216 185 167 228 228 259 275 277 243 230 225 214 245 267
65 55 50 42 33 23 15 8 2 360 3 79 25 66 84 358 21 32 320 243 264 258 230 224 238 232 204 256 228 231 231 216 205 214 196 210 252 246 251 268 277 269 261 242 227 245 255
69 58 51 43 35 27 20 15 8 0 359 66 66 38 110 73 314 328 319 239 267 306 231 224 231 3 203 236 243 278 268 287 268 181 191 199 262 259 268 258 260 264 262 256 250 254 256
70 60 50 44 38 31 26 20 16 9 10 68 62 93 130 76 25 319 238 237 223 203 247 239 225 258 265 258 262 267 274 257 250 220 199 192 226 255 276 329 294 268 248 246 239 234 230
66 59 51 44 39 35 31 26 21 17 22 65 68 79 123 271 237 238 237 245 260 245 255 279 248 260 286 314 284 261 252 256 259 245 188 196 206 229 282 297 269 297 193 226 222 243 225
62 57 50 46 41 38 32 29 24 20 16 51 23 38 158 252 252 269 256 257 277 267 245 258 278 276 320 321 298 304 252 258 204 60 203 218 195 255 257 265 281 296 244 187 195 280 248
58 54 49 45 44 42 36 32 28 23 19 64 36 329 347 263 257 249 261 234 272 280 288 238 47 348 254 222 214 251 269 305 241 240 200 215 228 206 207 249 275 7 40 78 155 290 29
63 55 47 40 37 34 31 30 29 24 22 58 40 12 21 277 320 331 277 309 315 319 275 301 338 309 2 219 238 252 254 268 249 231 202 177 212 234 248 269 275 24 45 9 274 337 309
52 45 39 33 31 25 16 13 16 21 24 41 44 10 23 256 281 337 355 351 324 309 272 338 309 99 154 215 242 253 261 282 304 18 69 246 213 234 226 241 276 168 12 313 334 310 308
46 40 32 26 23 18 11 10 7 9 28 37 4 7 327 229 281 338 312 315 266 186 271 238 260 97 217 220 218 284 266 252 281 279 208 268 220 272 213 275 310 332 305 339 326 296 302